Powrót do katalogu

STARLINK-34885

AktywnyŁącznośćVLEO
NORAD 65328·PAYLOAD·🇺🇸 United States

Wystrzelony Aug 27, 2025 z Cape Canaveral Space Force Station

Loading…

Następne Przeloty (najbliższe 24 godziny)

TLE

ŚwieżeSource: CelesTrak SupGP

Epoka: Sep 14, 2026, 21:11 UTC

1 65328C 25189F   26257.88312500  .00047990  00000+0  15432-2 0  2570
2 65328  53.1602  46.4964 0001124  70.5116 296.5147 15.31678622    10

Śledź STARLINK-34885 w czasie rzeczywistym z AllMySat

Download on the App Store